Wind_Speed
61 55 60 60 60 57 45 48 56 62 70 70 69 71 77 80 76 76 78 82 82 83 84 85 86 87 87 89 91 93 96 98 99 100 99 98 99 98
53 55 55 54 57 48 47 46 51 62 68 70 68 76 82 84 82 82 85 88 87 88 88 91 90 92 92 93 95 96 97 99 100 100 101 100 102 100
50 53 53 56 51 50 53 50 54 57 66 71 77 79 80 88 92 92 96 95 93 93 92 93 94 96 97 98 99 97 97 99 103 104 103 103 102 101
53 52 53 54 53 56 54 53 58 63 67 70 77 78 84 94 95 95 95 95 94 99 99 100 98 98 100 102 100 101 106 107 107 104 103 102 103 102
44 49 50 49 53 59 62 65 66 69 70 72 79 78 87 87 86 88 90 95 97 100 100 102 103 104 105 106 108 109 109 109 107 105 103 103 102 103
48 52 56 60 63 66 66 67 69 71 72 76 84 87 92 93 92 94 97 96 99 103 106 108 109 111 111 112 114 114 114 111 108 105 105 105 106 108
54 57 59 62 64 67 68 69 71 74 79 84 85 87 91 95 99 100 102 102 104 108 110 114 116 116 115 117 117 118 118 112 109 107 107 108 110 111
54 58 61 65 68 70 73 74 77 80 82 82 86 87 91 97 101 108 110 110 109 112 113 117 121 121 124 124 123 121 119 113 111 109 110 112 113 114
56 58 61 65 70 75 79 81 82 85 85 83 84 89 92 96 103 106 106 110 113 117 120 119 123 125 126 126 125 125 121 116 111 113 115 116 116 115
58 63 67 71 75 78 81 85 87 89 89 89 90 93 97 102 107 109 110 113 116 120 125 124 127 128 129 128 124 121 121 118 116 117 118 117 116 113
68 71 76 78 82 85 90 93 92 92 90 92 95 99 103 107 111 113 116 119 121 126 128 130 130 132 131 125 122 122 121 120 120 119 119 116 112 106
78 82 83 87 90 94 97 99 101 97 97 99 102 107 111 114 118 120 121 125 130 129 134 135 135 136 129 125 124 122 121 121 120 116 114 108 104 99
86 89 91 94 98 103 104 110 108 104 103 106 110 115 119 123 124 126 130 131 134 137 139 140 135 133 130 124 123 123 122 119 113 111 105 100 96 92
93 95 99 101 104 109 111 118 114 110 111 115 119 125 128 129 131 132 134 137 140 142 140 135 130 128 127 123 122 120 114 109 105 101 97 91 87 85
99 102 105 107 112 115 120 122 118 116 120 124 129 131 133 133 135 136 140 143 141 135 131 131 128 126 121 115 109 109 107 104 100 93 88 84 80 76
106 109 110 115 118 124 126 125 122 125 129 132 135 136 136 137 139 140 137 131 129 130 127 124 120 114 109 104 99 98 99 95 94 89 81 76 73 69
112 114 117 122 127 130 132 128 129 133 136 137 138 139 138 137 136 130 127 124 119 117 114 111 107 103 99 94 92 91 90 87 84 79 73 69 67 63
116 120 123 129 132 136 133 133 137 139 138 138 138 135 133 127 122 119 115 111 108 106 103 100 97 93 89 87 85 82 81 78 75 72 68 63 61 57
123 126 132 133 138 136 136 139 140 138 136 133 131 127 121 116 112 108 106 102 98 95 93 89 86 82 80 79 80 75 71 71 68 64 61 58 55 52
130 134 135 139 137 138 138 136 134 130 128 123 117 113 108 105 101 98 95 91 88 86 84 81 78 75 73 72 72 68 62 65 60 58 54 51 48 48
133 136 138 135 136 133 130 128 125 121 115 111 106 103 99 96 93 90 87 84 81 79 77 74 70 68 66 63 62 57 55 55 52 49 46 44 44 42
136 134 133 133 130 128 124 120 114 110 105 101 99 95 92 89 86 82 79 77 74 70 67 64 61 59 57 55 52 50 49 47 45 42 41 40 39 38
130 131 128 126 123 119 113 109 104 100 97 94 92 88 84 81 77 75 71 67 64 61 58 55 53 50 48 47 45 44 43 41 39 38 37 36 36 34
Wind_Direction
277 274 275 276 288 296 302 298 300 304 305 306 309 303 303 304 305 305 305 305 308 310 310 310 311 311 310 309 307 306 304 302 300 299 300 298 298 298
276 277 276 284 291 296 301 298 296 297 301 301 297 294 295 300 303 302 302 303 306 308 309 306 307 309 309 308 307 304 302 300 299 300 298 296 297 297
273 274 277 285 291 297 299 290 289 288 286 289 288 296 297 300 301 299 300 301 302 303 305 305 306 308 308 307 305 303 303 304 302 300 298 296 297 296
275 277 281 290 297 293 296 296 293 292 291 294 298 299 298 300 299 298 300 302 301 302 305 304 304 306 306 305 306 308 307 305 302 300 299 295 296 297
276 277 287 285 285 289 292 295 295 295 294 295 296 300 299 304 302 301 300 300 302 302 303 305 306 307 307 307 308 306 305 304 302 299 297 297 299 301
288 287 288 289 291 293 292 292 293 293 294 294 295 295 299 304 306 304 303 302 302 303 303 303 305 306 306 305 304 306 307 304 301 299 299 301 303 303
289 291 292 294 295 295 296 295 294 296 295 295 295 295 300 304 306 306 305 303 302 302 302 304 303 305 305 304 304 304 306 303 301 300 301 302 303 304
292 294 296 297 297 298 297 296 295 294 295 296 299 301 301 301 301 298 301 301 302 301 301 302 303 305 304 304 304 305 304 302 300 300 302 303 303 303
295 299 303 304 304 302 299 297 297 296 296 295 296 298 299 300 301 299 297 299 299 299 301 301 301 301 302 304 304 303 301 301 302 303 303 303 302 302
297 299 301 303 307 308 304 299 298 296 295 297 298 299 299 301 300 298 298 298 298 298 300 301 300 301 301 302 302 300 301 302 302 302 302 302 302 302
299 301 305 304 305 305 307 307 300 297 296 298 299 299 300 300 300 298 298 298 298 300 301 301 301 302 301 301 300 300 300 300 301 301 301 301 300 299
299 301 302 304 305 305 305 306 304 299 299 299 300 300 300 301 301 299 298 298 301 301 301 303 303 302 301 300 299 299 299 299 300 299 298 298 298 298
299 299 300 302 303 305 305 305 304 300 299 299 300 300 301 302 300 299 301 302 302 303 302 302 301 298 298 298 299 298 298 298 298 297 297 296 296 296
300 300 299 300 302 303 303 303 302 300 300 301 301 303 303 302 302 302 303 303 303 301 299 298 297 297 298 298 298 297 296 295 294 294 294 294 294 294
299 299 300 301 302 303 303 302 301 301 302 302 304 303 303 303 303 303 303 301 299 298 297 297 297 296 296 296 295 295 294 294 293 293 293 293 293 293
299 300 300 300 301 302 303 303 303 303 304 304 303 303 303 303 302 300 299 298 297 297 296 295 295 295 294 294 295 294 292 292 292 292 293 293 291 290
298 299 299 301 301 302 303 303 304 304 304 304 303 303 302 301 299 298 297 297 296 295 294 294 294 294 293 293 292 291 289 289 289 290 290 289 288 287
298 299 300 301 302 303 303 303 304 304 304 303 303 301 300 299 298 297 297 296 295 294 293 292 292 292 292 292 289 288 288 287 288 288 288 286 285 284
297 299 301 302 303 303 303 304 305 303 303 302 300 300 299 299 299 297 296 296 295 294 293 292 292 292 291 289 288 286 287 286 286 285 285 284 282 281
299 300 302 302 303 303 304 303 303 302 301 301 300 299 299 298 298 297 297 296 296 295 294 293 293 291 289 287 285 287 286 283 283 282 282 280 279 275
299 301 301 303 303 304 304 304 302 302 301 301 301 301 300 300 300 299 299 298 296 295 293 292 291 289 287 286 285 287 282 282 281 280 279 276 273 273
300 303 303 304 304 305 304 303 303 303 303 303 303 302 302 301 301 300 298 297 295 294 294 293 291 289 287 286 285 283 281 280 279 278 275 272 271 269
303 303 305 305 305 304 304 304 304 304 304 304 304 303 302 301 300 299 298 297 297 297 295 293 292 290 289 287 284 282 280 279 278 275 272 270 268 267
Height
10581 10577 10574 10568 10564 10559 10552 10546 10540 10538 10533 10527 10518 10511 10506 10500 10496 10492 10484 10475 10469 10461 10453 10445 10435 10427 10419 10410 10401 10392 10383 10375 10366 10357 10348 10339 10331 10324
10568 10563 10560 10557 10552 10546 10540 10536 10529 10523 10516 10516 10508 10500 10491 10485 10481 10474 10467 10458 10450 10442 10434 10426 10418 10408 10401 10391 10382 10373 10364 10355 10345 10335 10325 10316 10307 10299
10554 10550 10548 10545 10540 10533 10528 10522 10517 10511 10506 10502 10495 10488 10480 10470 10461 10454 10448 10442 10434 10427 10419 10408 10399 10389 10380 10370 10361 10353 10342 10331 10321 10311 10300 10290 10282 10272
10542 10540 10537 10530 10525 10522 10515 10509 10504 10500 10492 10486 10476 10469 10460 10451 10445 10437 10427 10419 10410 10402 10394 10385 10378 10369 10359 10348 10337 10325 10316 10305 10295 10284 10273 10265 10254 10244
10532 10529 10523 10519 10513 10508 10503 10498 10491 10485 10479 10468 10458 10454 10447 10439 10427 10419 10410 10400 10389 10378 10371 10359 10349 10342 10331 10318 10307 10300 10291 10278 10267 10257 10247 10237 10225 10214
10518 10515 10511 10506 10501 10495 10490 10484 10478 10471 10464 10456 10447 10439 10429 10418 10407 10394 10384 10375 10364 10354 10343 10333 10323 10313 10304 10293 10284 10272 10261 10251 10239 10229 10218 10206 10195 10183
10507 10502 10498 10492 10487 10480 10473 10469 10461 10454 10446 10437 10427 10418 10405 10394 10382 10368 10360 10350 10340 10329 10319 10305 10297 10285 10276 10267 10256 10245 10235 10222 10212 10200 10189 10177 10165 10154
10493 10489 10484 10477 10470 10463 10455 10449 10443 10435 10426 10415 10402 10394 10385 10371 10359 10348 10335 10325 10316 10304 10295 10284 10267 10257 10243 10236 10225 10213 10204 10195 10184 10171 10159 10148 10136 10124
10479 10473 10467 10460 10453 10445 10437 10428 10420 10412 10404 10395 10387 10376 10366 10356 10344 10331 10320 10307 10293 10278 10267 10260 10241 10233 10219 10207 10199 10184 10171 10163 10152 10140 10129 10118 10106 10094
10461 10455 10449 10441 10434 10425 10417 10407 10398 10389 10379 10369 10360 10350 10339 10329 10317 10305 10292 10280 10268 10252 10235 10230 10215 10204 10193 10182 10170 10157 10141 10129 10120 10109 10099 10087 10075 10063
10440 10433 10426 10418 10410 10403 10393 10384 10374 10365 10354 10344 10333 10323 10313 10302 10289 10276 10262 10248 10238 10225 10205 10192 10188 10171 10162 10151 10138 10127 10112 10098 10091 10080 10067 10056 10045 10034
10419 10411 10403 10394 10385 10376 10366 10356 10347 10337 10325 10314 10304 10293 10282 10271 10256 10243 10231 10217 10203 10194 10173 10156 10148 10131 10127 10117 10106 10092 10080 10069 10057 10048 10038 10027 10017 10006
10398 10390 10381 10371 10362 10351 10340 10330 10319 10308 10297 10285 10274 10262 10249 10236 10224 10210 10197 10181 10167 10153 10137 10119 10115 10099 10084 10088 10075 10059 10045 10035 10028 10015 10008 9999 9991 9980
10377 10368 10358 10349 10338 10328 10316 10302 10288 10275 10264 10252 10239 10226 10213 10199 10186 10171 10156 10140 10126 10114 10102 10082 10077 10063 10052 10047 10044 10025 10015 10006 9996 9989 9980 9973 9967 9957
10353 10343 10332 10321 10309 10297 10284 10271 10258 10245 10231 10217 10203 10188 10173 10159 10144 10130 10115 10101 10089 10073 10060 10048 10038 10027 10018 10013 10007 9999 9982 9972 9962 9957 9953 9946 9941 9934
10327 10316 10304 10291 10278 10265 10250 10238 10222 10208 10193 10178 10162 10147 10133 10118 10104 10090 10077 10061 10049 10037 10022 10010 10000 9993 9986 9979 9972 9967 9950 9944 9932 9926 9926 9923 9917 9913
10299 10286 10274 10260 10245 10230 10216 10200 10187 10171 10155 10139 10121 10107 10092 10077 10063 10048 10035 10022 10011 9999 9986 9973 9965 9958 9953 9949 9943 9932 9923 9917 9908 9905 9902 9900 9896 9893
10270 10257 10242 10228 10211 10196 10179 10163 10146 10131 10116 10099 10083 10066 10051 10036 10022 10008 9995 9984 9975 9963 9953 9943 9935 9929 9923 9917 9909 9905 9896 9890 9885 9883 9879 9878 9875 9873
10241 10226 10211 10195 10178 10160 10143 10125 10108 10090 10074 10058 10042 10025 10010 9997 9984 9971 9959 9949 9939 9930 9921 9913 9907 9902 9896 9888 9876 9876 9875 9866 9864 9861 9858 9857 9856 9853
10206 10191 10175 10159 10141 10124 10107 10088 10070 10052 10035 10018 10003 9989 9975 9962 9950 9938 9927 9918 9909 9900 9891 9883 9878 9873 9867 9861 9852 9849 9855 9842 9843 9840 9840 9839 9838 9835
10174 10157 10140 10122 10104 10086 10067 10049 10031 10015 9999 9983 9968 9954 9941 9928 9916 9907 9897 9889 9880 9873 9864 9858 9853 9847 9841 9838 9832 9832 9830 9824 9823 9822 9822 9821 9820 9819
10139 10120 10102 10084 10065 10047 10028 10011 9995 9980 9964 9949 9936 9923 9910 9899 9889 9879 9871 9862 9855 9848 9841 9836 9831 9825 9820 9817 9815 9813 9810 9808 9807 9807 9806 9805 9805 9805
10102 10084 10066 10047 10030 10012 9994 9978 9963 9949 9935 9921 9907 9895 9885 9875 9865 9856 9847 9840 9833 9828 9821 9816 9810 9806 9802 9799 9796 9794 9793 9792 9792 9791 9792 9792 9793 9794